JCSAT-4A

Last updated on Thu Mar 10 2022 00:02:37 GMT+0000 (Coordinated Universal Time)

1 25630U 99006A 22068.32707949 -.00000219 00000+0 00000+0 0 9990 2 25630 6.0139 69.5347 0026654 358.7046 204.0893 0.98813476 784

Satellite not in orbit

JCSAT-4A